Weather History for Middlesboro, KY

Change the Weather History Date:

Tuesday, October 18, 2011

  Actual Average (KLOZ) Record (KLOZ)
Temperature  
Mean Temperature 66 °F 57 °F  
Max Temperature 80 °F 69 °F 81 °F (1963)
Min Temperature 53 °F 44 °F 25 °F (1969)
Degree Days  
Heating Degree Days 0 9  
Month to date heating degree days 120  
Since 1 July heating degree days 167  
Cooling Degree Days 2 0  
Month to date cooling degree days 17  
Growing Degree Days 16 (Base 50)    
Moisture  
Dew Point 57 °F    
Average Humidity 79    
Maximum Humidity 100    
Minimum Humidity 44    
Precipitation  
Precipitation 0.00 in 0.09 in 2.01 in (2004)
Month to date precipitation 1.69  
Sea Level Pressure  
Sea Level Pressure 29.73 in    
Wind  
Wind Speed 1 mph (SSW)    
Max Wind Speed 10 mph    
Max Gust Speed 17 mph    
Visibility 7 miles    
Events Fog    
T = Trace of Precipitation, MM = Missing Value Source: NWS Daily Summary

Daily Weather History Graph

Daily Weather History Graph

Search for Another Location

Airport:

Trip Planner

Search our weather history database for the weather conditions in past years. The results will help you decide how hot, cold, wet, or windy it might be!

Date:

Astronomy

Oct. 18, 2011 Rise Set
Actual Time 6:44 AM CDT 5:54 PM CDT
Civil Twilight 6:18 AM CDT 6:21 PM CDT
Nautical Twilight 5:48 AM CDT 6:51 PM CDT
Astronomical Twilight 5:18 AM CDT 7:20 PM CDT
Moon 10:40 PM CDT (10/18) 12:29 PM CDT (10/18)
Length of Visible Light 12h 02m
Length of Day
11h 10m
Waning Gibbous, 64% of the Moon is Illuminated
Oct 18
Waning Gibbous
Oct 19
Last Quarter
Oct 26
New
Nov 2
First Quarter
Nov 10
Full

Hourly Weather History & Observations

Time (CDT) Temp. Heat Index Dew Point Humidity Pressure Visibility Wind Dir Wind Speed Gust Speed Precip Events Conditions
12:15 AM 55.4 °F - 55.4 °F 100% 29.85 in 7.0 mi Calm Calm - N/A   Clear
12:35 AM 55.4 °F - 55.4 °F 100% 29.84 in 7.0 mi Calm Calm - N/A   Clear
1:15 AM 55.4 °F - 55.4 °F 100% 29.84 in 7.0 mi Calm Calm - N/A   Clear
1:35 AM 55.4 °F - 53.6 °F 94% 29.83 in 5.0 mi Calm Calm - N/A   Clear
1:55 AM 55.4 °F - 53.6 °F 94% 29.83 in 7.0 mi Calm Calm - N/A   Clear
2:15 AM 55.4 °F - 53.6 °F 94% 29.83 in 7.0 mi Calm Calm - N/A   Clear
2:55 AM 53.6 °F - 53.6 °F 100% 29.82 in 7.0 mi Calm Calm - N/A   Clear
3:35 AM 53.6 °F - 53.6 °F 100% 29.83 in 1.5 mi Calm Calm - N/A   Overcast
3:55 AM 53.6 °F - 53.6 °F 100% 29.83 in 4.0 mi Calm Calm - N/A   Overcast
4:15 AM 53.6 °F - 53.6 °F 100% 29.83 in 0.2 mi Calm Calm - N/A Fog Fog
4:35 AM 53.6 °F - 53.6 °F 100% 29.83 in 0.5 mi Calm Calm - N/A Fog Fog
4:55 AM 53.6 °F - 51.8 °F 94% 29.83 in 0.2 mi Calm Calm - N/A Fog Fog
5:15 AM 53.6 °F - 53.6 °F 100% 29.83 in 0.2 mi Calm Calm - N/A Fog Fog
5:35 AM 53.6 °F - 53.6 °F 100% 29.83 in 0.2 mi Calm Calm - N/A Fog Fog
6:15 AM 53.6 °F - 51.8 °F 94% 29.83 in 0.2 mi Calm Calm - N/A Fog Fog
6:35 AM 53.6 °F - 51.8 °F 94% 29.82 in 0.2 mi Calm Calm - N/A Fog Fog
6:55 AM 53.6 °F - 51.8 °F 94% 29.82 in 0.2 mi Calm Calm - N/A Fog Fog
7:15 AM 53.6 °F - 51.8 °F 94% 29.82 in 0.2 mi Calm Calm - N/A Fog Fog
7:35 AM 53.6 °F - 53.6 °F 100% 29.82 in 0.2 mi Calm Calm - N/A Fog Fog
7:55 AM 53.6 °F - 53.6 °F 100% 29.83 in 0.2 mi Calm Calm - N/A Fog Fog
8:15 AM 53.6 °F - 53.6 °F 100% 29.82 in 0.8 mi Calm Calm - N/A   Overcast
8:35 AM 55.4 °F - 53.6 °F 94% 29.82 in 5.0 mi Calm Calm - N/A   Scattered Clouds
9:15 AM 59.0 °F - 57.2 °F 94% 29.81 in 10.0 mi Calm Calm - N/A   Clear
9:35 AM 60.8 °F - 60.8 °F 100% 29.81 in 10.0 mi Calm Calm - N/A   Scattered Clouds
9:55 AM 66.2 °F - 62.6 °F 88% 29.80 in 10.0 mi Calm Calm - N/A   Scattered Clouds
10:15 AM 71.6 °F - 60.8 °F 69% 29.80 in 10.0 mi South 4.6 mph - N/A   Scattered Clouds
10:35 AM 71.6 °F - 60.8 °F 69% 29.79 in 10.0 mi South 4.6 mph - N/A   Scattered Clouds
10:55 AM 73.4 °F - 60.8 °F 65% 29.78 in 10.0 mi South 9.2 mph - N/A   Clear
11:15 AM 73.4 °F - 60.8 °F 65% 29.78 in 10.0 mi South 8.1 mph - N/A   Scattered Clouds
11:55 AM 75.2 °F - 60.8 °F 61% 29.76 in 10.0 mi South 6.9 mph - N/A   Clear
12:15 PM 77.0 °F - 60.8 °F 57% 29.75 in 10.0 mi SSW 6.9 mph - N/A   Clear
12:35 PM 75.2 °F - 59.0 °F 57% 29.74 in 10.0 mi SSW 5.8 mph - N/A   Clear
12:55 PM 78.8 °F - 60.8 °F 54% 29.73 in 10.0 mi SE 3.5 mph - N/A   Clear
1:15 PM 78.8 °F - 60.8 °F 54% 29.71 in 10.0 mi South 6.9 mph - N/A   Clear
1:35 PM 78.8 °F - 59.0 °F 51% 29.71 in 10.0 mi South 10.4 mph - N/A   Clear
1:55 PM 80.6 °F 81.1 °F 59.0 °F 48% 29.69 in 10.0 mi South 4.6 mph - N/A   Clear
2:15 PM 80.6 °F 80.8 °F 57.2 °F 45% 29.68 in 10.0 mi West 3.5 mph - N/A   Clear
2:35 PM 78.8 °F - 55.4 °F 44% 29.69 in 10.0 mi WSW 9.2 mph 17.3 mph N/A   Clear
2:55 PM 80.6 °F 80.8 °F 57.2 °F 45% 29.67 in 10.0 mi South 5.8 mph - N/A   Clear
3:15 PM 80.6 °F 80.8 °F 57.2 °F 45% 29.67 in 10.0 mi SSW 5.8 mph - N/A   Clear
3:35 PM 80.6 °F 80.8 °F 57.2 °F 45% 29.66 in 10.0 mi South 5.8 mph - N/A   Clear
3:55 PM 78.8 °F - 57.2 °F 47% 29.65 in 10.0 mi South 3.5 mph - N/A   Clear
4:15 PM 78.8 °F - 57.2 °F 47% 29.64 in 10.0 mi SSW 5.8 mph - N/A   Scattered Clouds
4:35 PM 78.8 °F - 59.0 °F 51% 29.63 in 10.0 mi Calm Calm - N/A   Scattered Clouds
4:55 PM 75.2 °F - 59.0 °F 57% 29.62 in 10.0 mi Calm Calm - N/A   Clear
5:15 PM 75.2 °F - 60.8 °F 61% 29.62 in 7.0 mi Calm Calm - N/A   Clear
5:35 PM 73.4 °F - 62.6 °F 69% 29.61 in 10.0 mi Calm Calm - N/A   Clear
5:55 PM 71.6 °F - 60.8 °F 69% 29.61 in 10.0 mi West 3.5 mph - N/A   Clear
6:15 PM 71.6 °F - 60.8 °F 69% 29.61 in 10.0 mi WSW 3.5 mph - N/A   Clear
6:35 PM 66.2 °F - 60.8 °F 83% 29.61 in 10.0 mi Calm Calm - N/A   Clear
6:55 PM 66.2 °F - 60.8 °F 83% 29.61 in 10.0 mi Calm Calm - N/A   Clear
7:15 PM 64.4 °F - 60.8 °F 88% 29.60 in 10.0 mi Calm Calm - N/A   Clear
7:35 PM 64.4 °F - 60.8 °F 88% 29.59 in 10.0 mi Calm Calm - N/A   Clear
7:55 PM 62.6 °F - 60.8 °F 94% 29.59 in 10.0 mi Calm Calm - N/A   Scattered Clouds
8:15 PM 62.6 °F - 60.8 °F 94% 29.58 in 10.0 mi Calm Calm - N/A   Scattered Clouds
8:35 PM 62.6 °F - 60.8 °F 94% 29.57 in 10.0 mi Calm Calm - N/A   Scattered Clouds
8:55 PM 62.6 °F - 59.0 °F 88% 29.56 in 10.0 mi Calm Calm - N/A   Clear
9:15 PM 62.6 °F - 60.8 °F 94% 29.56 in 10.0 mi Calm Calm - N/A   Clear
9:35 PM 60.8 °F - 60.8 °F 100% 29.57 in 10.0 mi Calm Calm - N/A   Clear
9:55 PM 62.6 °F - 60.8 °F 94% 29.57 in 10.0 mi Calm Calm - N/A   Mostly Cloudy
10:15 PM 64.4 °F - 60.8 °F 88% 29.60 in 5.0 mi West 9.2 mph 19.6 mph N/A Rain Rain
10:35 PM 62.6 °F - 60.8 °F 94% 29.60 in 10.0 mi WSW 4.6 mph - 0.01 in Rain Rain
10:55 PM 62.6 °F - 60.8 °F 94% 29.59 in 7.0 mi Calm Calm - 0.01 in Rain Rain
11:15 PM 62.6 °F - 60.8 °F 94% 29.59 in 10.0 mi NE 3.5 mph - 0.03 in Rain Rain
11:35 PM 62.6 °F - 60.8 °F 94% 29.58 in 4.0 mi ENE 4.6 mph - 0.09 in Rain Heavy Rain
11:55 PM 60.8 °F - 60.8 °F 100% 29.56 in 5.0 mi ENE 3.5 mph - 0.03 in Rain Heavy Rain